Regional Weather Roundup
Issued by NWS

Home | Current Version | Previous Version | Text Only | Print | Product List | Glossary On
Versions: 1 2 3 4 5 6 7 8 9 10 11 12 13 14 15 16 17 18 19 20 21 22 23 24 25 26 27 28
000
ASUS44 KBMX 222210
RWRAL

ALABAMA REGIONAL WEATHER ROUNDUP
NATIONAL WEATHER SERVICE BIRMINGHAM AL
500 PM CDT MON MAY 22 2017

NOTE: "FAIR" INDICATES FEW OR NO CLOUDS BELOW 12,000 FEET
WITH NO SIGNIFICANT WEATHER AND/OR OBSTRUCTIONS TO VISIBILITY.

THE REMARK "TC" DENOTES TEMPERATURE IN DEGREES CELSIUS.

ALZ001>011-014-016>018-020-222300-
NORTH ALABAMA

CITY           SKY/WX    TMP DP  RH WIND       PRES   REMARKS
MUSCLE SHOALS  PTSUNNY   75  58  55 CALM      29.98F
HUNTSVILLE     CLOUDY    77  63  61 NW6       29.97F
DECATUR        PTSUNNY   77  62  59 N6        29.97F
HALEYVILLE     FAIR      73  63  70 CALM      30.00F
GADSDEN        CLOUDY    73  69  87 CALM      29.98S
$$

ALZ012-013-022-023-030>036-040>044-222300-
WEST CENTRAL ALABAMA

CITY           SKY/WX    TMP DP  RH WIND       PRES   REMARKS
TUSCALOOSA     LGT RAIN  75  69  81 E5        29.95S
$$

ALZ015-024>027-033>036-040>044-222300-
CENTRAL ALABAMA

CITY           SKY/WX    TMP DP  RH WIND       PRES   REMARKS
BIRMINGHAM     LGT RAIN  74  70  87 CALM      29.98F FOG
MONTGOMERY     RAIN      75  70  84 N6        29.95S
SHELBY CO ARPT LGT RAIN  73  73 100 CALM      29.95F FOG
MAXWELL AFB    LGT RAIN  73  70  88 S7        29.93F
GREENVILLE     FAIR      81  66  60 W7        29.93F
$$

ALZ019-021-028-029-037-038-045>048-222300-
EAST CENTRAL ALABAMA

CITY           SKY/WX    TMP DP  RH WIND       PRES   REMARKS
ANNISTON       CLOUDY    74  69  85 N5        29.96F
ALEXANDER CITY DRIZZLE   75  71  87 CALM      29.96S
AUBURN         CLOUDY    72  67  84 NE3       29.97F
$$

ALZ051>064-222300-
SOUTHWEST ALABAMA

CITY           SKY/WX    TMP DP  RH WIND       PRES   REMARKS
MOBILE         LGT RAIN  74  69  85 W3        29.98F
BROOKLEY FIELD LGT RAIN  77  71  82 SW6       29.98F
EVERGREEN      CLOUDY    80  69  69 SW5       29.95F
$$

ALZ049-050-065>069-222300-
SOUTHEAST ALABAMA

CITY           SKY/WX    TMP DP  RH WIND       PRES   REMARKS
DOTHAN         CLOUDY    83  69  62 SW8       29.96F
OZARK          CLOUDY    83  69  62 SW6       29.93F
TROY           MOSUNNY   82  69  64 W6        29.94F
EUFAULA        FAIR      85  69  58 VRB3      29.91F
$$




USA.gov is the U.S. government's official web portal to all federal, state and local government web resources and services.